Regional Weather Roundup
Issued by NWS Cleveland, OH

Home | Current Version | Previous Version | Graphics & Text | Print | Product List | Glossary On
Versions: 1 2 3 4 5 6 7 8 9 10 11 12 13 14 15 16 17 18 19 20 21 22 23 24 25 26 27 28 29 30 31 32 33 34 35 36 37 38 39 40 41 42 43 44 45 46 47 48 49 50
000
ASUS41 KCLE 150402
RWRCLE
OHIO REGIONAL WEATHER ROUNDUP
NATIONAL WEATHER SERVICE CLEVELAND, OH
1100 PM EST THU DEC 14 2017

NOTE: "FAIR" INDICATES FEW OR NO CLOUDS BELOW 12,000 FEET WITH NO
SIGNIFICANT WEATHER AND/OR OBSTRUCTIONS TO VISIBILITY.

OHZ001>008-015>018-024>027-034-035-043-044-150500-
   NORTHWEST OHIO

CITY           SKY/WX    TMP DP  RH WIND       PRES   REMARKS
DEFIANCE       CLOUDY    12   5  73 S3        30.08F
FINDLAY        CLOUDY    10   3  73 S6        30.07F WCI   0
TOLEDO EXPRESS PTCLDY     5   2  87 CALM      30.07S
TOLEDO EXEC    CLOUDY     6   1  80 S6        30.09S WCI  -4
LIMA           CLOUDY    14  11  87 S6        30.07S WCI   5
$$

OHZ009>014-019>023-028>033-038-089-150500-
   NORTHEAST OHIO

CITY           SKY/WX    TMP DP  RH WIND       PRES   REMARKS
CLE-HOPKINS    PTCLDY    12   8  84 SW7       30.10S WCI   1
CLE-LAKEFRONT  CLEAR     16   8  71 S7        30.08S WCI   6
CUY CO. ARPT   CLEAR     16  10  79 S9        30.07S WCI   4
LORAIN-ELYRIA  PTCLDY     5   1  83 S5        30.09R WCI  -4
ASHTABULA      CLEAR     13   9  84 SW6       30.05S WCI   4
AKRON-CANTON   CLOUDY    15   9  76 W3        30.04S
WOOSTER        CLOUDY     4   1  88 CALM      30.06S FOG
MANSFIELD      CLOUDY    12   9  87 W3        30.05R
YOUNGSTOWN     CLOUDY    12   9  87 SW5       30.04R WCI   4
$$

OHZ042-051>053-060>062-070>072-077>081-150500-
  SOUTHWEST OHIO

CITY           SKY/WX    TMP DP  RH WIND       PRES   REMARKS
CINC-COVINGTON CLOUDY    25  17  72 NE6       30.07S WCI  18
CINC-LUNKEN    CLOUDY    24  17  74 CALM      30.12S
HAMILTON       CLOUDY    19  17  92 CALM      30.11S
DAYTON         CLOUDY    20  17  88 N3        30.08S
WRIGHT-PAT AFB MOCLDY    19  15  86 CALM      30.08S
DAYTON GENERAL CLOUDY    20  15  81 CALM      30.07S
WILMINGTON     PTCLDY    20  16  84 N3        30.06S
$$

OHZ036-037-039>041-045>050-054>059-063>069-073>076-082>088-150500-
  CENTRAL AND SOUTHEAST OHIO

CITY           SKY/WX    TMP DP  RH WIND       PRES   REMARKS
COLUMBUS       CLOUDY    21  16  81 N5        30.08S WCI  15
OSU AIRPORT    CLOUDY    20  15  81 N3        30.08S
BOLTON FIELD   CLOUDY    19  16  88 NW3       30.09S
RICKENBACK AFB CLOUDY    21  17  84 NE3       30.08F
NEWARK         PTCLDY    20  15  81 CALM      30.08R
MARION         CLOUDY    13  10  88 CALM      30.08
LANCASTER      CLOUDY    20  16  84 N3        30.08S
ZANESVILLE     PTCLDY    21  14  74 CALM      30.08R
NEW PHILLY     NOT AVBL
$$




USA.gov is the U.S. government's official web portal to all federal, state and local government web resources and services.